Data supplied by UK-AIR on 6/5/2010
All Data GMT hour ending 
Status: R =Ratified P=Provisional,P*=As supplied
,,Cambridge Roadside,,,,,,,,,,,,,,,,,,,,,,,
Date,time,"Nitric oxide",status,unit,"Nitrogen dioxide",status,unit,"Nitrogen oxides as nitrogen dioxide",status,unit
 
01-01-2009,01:00,14,R,ugm-3,34,R,ugm-3,55,R,ugm-3
01-01-2009,02:00,18,R,ugm-3,40,R,ugm-3,67,R,ugm-3
01-01-2009,03:00,21,R,ugm-3,40,R,ugm-3,73,R,ugm-3
01-01-2009,04:00,15,R,ugm-3,36,R,ugm-3,59,R,ugm-3
01-01-2009,05:00,15,R,ugm-3,38,R,ugm-3,61,R,ugm-3
01-01-2009,06:00,9,R,ugm-3,34,R,ugm-3,48,R,ugm-3
01-01-2009,07:00,8,R,ugm-3,36,R,ugm-3,48,R,ugm-3
01-01-2009,08:00,36,R,ugm-3,36,R,ugm-3,92,R,ugm-3
01-01-2009,09:00,21,R,ugm-3,42,R,ugm-3,74,R,ugm-3
01-01-2009,10:00,29,R,ugm-3,40,R,ugm-3,84,R,ugm-3
01-01-2009,11:00,45,R,ugm-3,42,R,ugm-3,111,R,ugm-3
01-01-2009,12:00,48,R,ugm-3,44,R,ugm-3,117,R,ugm-3
01-01-2009,13:00,51,R,ugm-3,42,R,ugm-3,120,R,ugm-3
01-01-2009,14:00,56,R,ugm-3,42,R,ugm-3,128,R,ugm-3
01-01-2009,15:00,50,R,ugm-3,40,R,ugm-3,117,R,ugm-3
01-01-2009,16:00,44,R,ugm-3,40,R,ugm-3,107,R,ugm-3
01-01-2009,17:00,40,R,ugm-3,36,R,ugm-3,97,R,ugm-3
01-01-2009,18:00,36,R,ugm-3,32,R,ugm-3,88,R,ugm-3
01-01-2009,19:00,30,R,ugm-3,31,R,ugm-3,76,R,ugm-3
01-01-2009,20:00,26,R,ugm-3,31,R,ugm-3,71,R,ugm-3
01-01-2009,21:00,26,R,ugm-3,31,R,ugm-3,71,R,ugm-3
01-01-2009,22:00,30,R,ugm-3,29,R,ugm-3,74,R,ugm-3
01-01-2009,23:00,21,R,ugm-3,27,R,ugm-3,59,R,ugm-3
01-01-2009,24:00,21,R,ugm-3,27,R,ugm-3,59,R,ugm-3
02-01-2009,01:00,19,R,ugm-3,27,R,ugm-3,55,R,ugm-3
02-01-2009,02:00,20,R,ugm-3,27,R,ugm-3,57,R,ugm-3
02-01-2009,03:00,11,R,ugm-3,25,R,ugm-3,42,R,ugm-3
02-01-2009,04:00,14,R,ugm-3,29,R,ugm-3,50,R,ugm-3
02-01-2009,05:00,11,R,ugm-3,27,R,ugm-3,44,R,ugm-3
02-01-2009,06:00,6,R,ugm-3,23,R,ugm-3,32,R,ugm-3
02-01-2009,07:00,15,R,ugm-3,29,R,ugm-3,52,R,ugm-3
02-01-2009,08:00,21,R,ugm-3,32,R,ugm-3,65,R,ugm-3
02-01-2009,09:00,56,R,ugm-3,40,R,ugm-3,126,R,ugm-3
02-01-2009,10:00,103,R,ugm-3,55,R,ugm-3,212,R,ugm-3
02-01-2009,11:00,105,R,ugm-3,52,R,ugm-3,212,R,ugm-3
02-01-2009,12:00,64,R,ugm-3,50,R,ugm-3,147,R,ugm-3
02-01-2009,13:00,54,R,ugm-3,53,R,ugm-3,136,R,ugm-3
02-01-2009,14:00,41,R,ugm-3,52,R,ugm-3,115,R,ugm-3
02-01-2009,15:00,35,R,ugm-3,46,R,ugm-3,99,R,ugm-3
02-01-2009,16:00,34,R,ugm-3,46,R,ugm-3,97,R,ugm-3
02-01-2009,17:00,45,R,ugm-3,46,R,ugm-3,115,R,ugm-3
02-01-2009,18:00,46,R,ugm-3,52,R,ugm-3,122,R,ugm-3
02-01-2009,19:00,48,R,ugm-3,55,R,ugm-3,128,R,ugm-3
02-01-2009,20:00,43,R,ugm-3,53,R,ugm-3,118,R,ugm-3
02-01-2009,21:00,30,R,ugm-3,48,R,ugm-3,94,R,ugm-3
02-01-2009,22:00,28,R,ugm-3,53,R,ugm-3,96,R,ugm-3
02-01-2009,23:00,33,R,ugm-3,61,R,ugm-3,111,R,ugm-3
02-01-2009,24:00,31,R,ugm-3,61,R,ugm-3,109,R,ugm-3
03-01-2009,01:00,19,R,ugm-3,55,R,ugm-3,84,R,ugm-3
03-01-2009,02:00,20,R,ugm-3,53,R,ugm-3,84,R,ugm-3
03-01-2009,03:00,28,R,ugm-3,55,R,ugm-3,97,R,ugm-3
03-01-2009,04:00,23,R,ugm-3,50,R,ugm-3,84,R,ugm-3
03-01-2009,05:00,23,R,ugm-3,52,R,ugm-3,86,R,ugm-3
03-01-2009,06:00,30,R,ugm-3,52,R,ugm-3,97,R,ugm-3
03-01-2009,07:00,59,R,ugm-3,59,R,ugm-3,149,R,ugm-3
03-01-2009,08:00,113,R,ugm-3,63,R,ugm-3,235,R,ugm-3
03-01-2009,09:00,164,R,ugm-3,63,R,ugm-3,313,R,ugm-3
03-01-2009,10:00,186,R,ugm-3,73,R,ugm-3,357,R,ugm-3
03-01-2009,11:00,224,R,ugm-3,69,R,ugm-3,411,R,ugm-3
03-01-2009,12:00,233,R,ugm-3,71,R,ugm-3,426,R,ugm-3
03-01-2009,13:00,220,R,ugm-3,78,R,ugm-3,414,R,ugm-3
03-01-2009,14:00,123,R,ugm-3,65,R,ugm-3,252,R,ugm-3
03-01-2009,15:00,68,R,ugm-3,57,R,ugm-3,160,R,ugm-3
03-01-2009,16:00,54,R,ugm-3,57,R,ugm-3,139,R,ugm-3
03-01-2009,17:00,128,R,ugm-3,78,R,ugm-3,273,R,ugm-3
03-01-2009,18:00,181,R,ugm-3,103,R,ugm-3,380,R,ugm-3
03-01-2009,19:00,186,R,ugm-3,86,R,ugm-3,371,R,ugm-3
03-01-2009,20:00,134,R,ugm-3,74,R,ugm-3,279,R,ugm-3
03-01-2009,21:00,88,R,ugm-3,69,R,ugm-3,202,R,ugm-3
03-01-2009,22:00,71,R,ugm-3,69,R,ugm-3,178,R,ugm-3
03-01-2009,23:00,68,R,ugm-3,65,R,ugm-3,168,R,ugm-3
03-01-2009,24:00,68,R,ugm-3,63,R,ugm-3,166,R,ugm-3
04-01-2009,01:00,75,R,ugm-3,67,R,ugm-3,181,R,ugm-3
04-01-2009,02:00,44,R,ugm-3,52,R,ugm-3,118,R,ugm-3
04-01-2009,03:00,49,R,ugm-3,53,R,ugm-3,128,R,ugm-3
04-01-2009,04:00,24,R,ugm-3,46,R,ugm-3,82,R,ugm-3
04-01-2009,05:00,23,R,ugm-3,48,R,ugm-3,82,R,ugm-3
04-01-2009,06:00,14,R,ugm-3,42,R,ugm-3,63,R,ugm-3
04-01-2009,07:00,9,R,ugm-3,40,R,ugm-3,53,R,ugm-3
04-01-2009,08:00,13,R,ugm-3,36,R,ugm-3,55,R,ugm-3
04-01-2009,09:00,13,R,ugm-3,36,R,ugm-3,55,R,ugm-3
04-01-2009,10:00,9,R,ugm-3,38,R,ugm-3,52,R,ugm-3
04-01-2009,11:00,29,R,ugm-3,44,R,ugm-3,88,R,ugm-3
04-01-2009,12:00,33,R,ugm-3,46,R,ugm-3,96,R,ugm-3
04-01-2009,13:00,39,R,ugm-3,53,R,ugm-3,113,R,ugm-3
04-01-2009,14:00,70,R,ugm-3,57,R,ugm-3,164,R,ugm-3
04-01-2009,15:00,64,R,ugm-3,55,R,ugm-3,153,R,ugm-3
04-01-2009,16:00,75,R,ugm-3,57,R,ugm-3,172,R,ugm-3
04-01-2009,17:00,83,R,ugm-3,61,R,ugm-3,187,R,ugm-3
04-01-2009,18:00,99,R,ugm-3,63,R,ugm-3,214,R,ugm-3
04-01-2009,19:00,89,R,ugm-3,59,R,ugm-3,195,R,ugm-3
04-01-2009,20:00,65,R,ugm-3,55,R,ugm-3,155,R,ugm-3
04-01-2009,21:00,58,R,ugm-3,53,R,ugm-3,141,R,ugm-3
04-01-2009,22:00,59,R,ugm-3,53,R,ugm-3,143,R,ugm-3
04-01-2009,23:00,43,R,ugm-3,50,R,ugm-3,115,R,ugm-3
04-01-2009,24:00,45,R,ugm-3,52,R,ugm-3,120,R,ugm-3
05-01-2009,01:00,21,R,ugm-3,42,R,ugm-3,74,R,ugm-3
05-01-2009,02:00,13,R,ugm-3,46,R,ugm-3,65,R,ugm-3
05-01-2009,03:00,8,R,ugm-3,40,R,ugm-3,52,R,ugm-3
05-01-2009,04:00,5,R,ugm-3,29,R,ugm-3,36,R,ugm-3
05-01-2009,05:00,1,R,ugm-3,19,R,ugm-3,21,R,ugm-3
05-01-2009,06:00,13,R,ugm-3,29,R,ugm-3,48,R,ugm-3
05-01-2009,07:00,9,R,ugm-3,23,R,ugm-3,36,R,ugm-3
05-01-2009,08:00,15,R,ugm-3,23,R,ugm-3,46,R,ugm-3
05-01-2009,09:00,19,R,ugm-3,32,R,ugm-3,61,R,ugm-3
05-01-2009,10:00,35,R,ugm-3,48,R,ugm-3,101,R,ugm-3
05-01-2009,11:00,36,R,ugm-3,44,R,ugm-3,99,R,ugm-3
05-01-2009,12:00,33,R,ugm-3,38,R,ugm-3,88,R,ugm-3
05-01-2009,13:00,23,R,ugm-3,32,R,ugm-3,67,R,ugm-3
05-01-2009,14:00,24,R,ugm-3,34,R,ugm-3,71,R,ugm-3
05-01-2009,15:00,24,R,ugm-3,36,R,ugm-3,73,R,ugm-3
05-01-2009,16:00,35,R,ugm-3,44,R,ugm-3,97,R,ugm-3
05-01-2009,17:00,31,R,ugm-3,44,R,ugm-3,92,R,ugm-3
05-01-2009,18:00,30,R,ugm-3,48,R,ugm-3,94,R,ugm-3
05-01-2009,19:00,29,R,ugm-3,44,R,ugm-3,88,R,ugm-3
05-01-2009,20:00,25,R,ugm-3,44,R,ugm-3,82,R,ugm-3
05-01-2009,21:00,14,R,ugm-3,40,R,ugm-3,61,R,ugm-3
05-01-2009,22:00,9,R,ugm-3,40,R,ugm-3,53,R,ugm-3
05-01-2009,23:00,8,R,ugm-3,38,R,ugm-3,50,R,ugm-3
05-01-2009,24:00,9,R,ugm-3,40,R,ugm-3,53,R,ugm-3
06-01-2009,01:00,3,R,ugm-3,27,R,ugm-3,31,R,ugm-3
06-01-2009,02:00,3,R,ugm-3,23,R,ugm-3,27,R,ugm-3
06-01-2009,03:00,4,R,ugm-3,19,R,ugm-3,25,R,ugm-3
06-01-2009,04:00,5,R,ugm-3,21,R,ugm-3,29,R,ugm-3
06-01-2009,05:00,3,R,ugm-3,23,R,ugm-3,27,R,ugm-3
06-01-2009,06:00,4,R,ugm-3,34,R,ugm-3,40,R,ugm-3
06-01-2009,07:00,11,R,ugm-3,50,R,ugm-3,67,R,ugm-3
06-01-2009,08:00,51,R,ugm-3,67,R,ugm-3,145,R,ugm-3
06-01-2009,09:00,143,R,ugm-3,78,R,ugm-3,296,R,ugm-3
06-01-2009,10:00,194,R,ugm-3,88,R,ugm-3,384,R,ugm-3
06-01-2009,11:00,140,R,ugm-3,73,R,ugm-3,287,R,ugm-3
06-01-2009,12:00,105,R,ugm-3,67,R,ugm-3,227,R,ugm-3
06-01-2009,13:00,49,R,ugm-3,52,R,ugm-3,126,R,ugm-3
06-01-2009,14:00,39,R,ugm-3,42,R,ugm-3,101,R,ugm-3
06-01-2009,15:00,41,R,ugm-3,48,R,ugm-3,111,R,ugm-3
06-01-2009,16:00,63,R,ugm-3,57,R,ugm-3,153,R,ugm-3
06-01-2009,17:00,73,R,ugm-3,65,R,ugm-3,176,R,ugm-3
06-01-2009,18:00,168,R,ugm-3,94,R,ugm-3,350,R,ugm-3
06-01-2009,19:00,190,R,ugm-3,97,R,ugm-3,388,R,ugm-3
06-01-2009,20:00,236,R,ugm-3,101,R,ugm-3,462,R,ugm-3
06-01-2009,21:00,158,R,ugm-3,88,R,ugm-3,329,R,ugm-3
06-01-2009,22:00,90,R,ugm-3,71,R,ugm-3,208,R,ugm-3
06-01-2009,23:00,59,R,ugm-3,69,R,ugm-3,159,R,ugm-3
06-01-2009,24:00,91,R,ugm-3,69,R,ugm-3,208,R,ugm-3
07-01-2009,01:00,55,R,ugm-3,71,R,ugm-3,155,R,ugm-3
07-01-2009,02:00,45,R,ugm-3,67,R,ugm-3,136,R,ugm-3
07-01-2009,03:00,39,R,ugm-3,69,R,ugm-3,128,R,ugm-3
07-01-2009,04:00,20,R,ugm-3,65,R,ugm-3,96,R,ugm-3
07-01-2009,05:00,15,R,ugm-3,57,R,ugm-3,80,R,ugm-3
07-01-2009,06:00,33,R,ugm-3,55,R,ugm-3,105,R,ugm-3
07-01-2009,07:00,29,R,ugm-3,55,R,ugm-3,99,R,ugm-3
07-01-2009,08:00,116,R,ugm-3,73,R,ugm-3,250,R,ugm-3
07-01-2009,09:00,166,R,ugm-3,76,R,ugm-3,330,R,ugm-3
07-01-2009,10:00,284,R,ugm-3,105,R,ugm-3,539,R,ugm-3
07-01-2009,11:00,211,R,ugm-3,73,R,ugm-3,395,R,ugm-3
07-01-2009,12:00,148,R,ugm-3,61,R,ugm-3,287,R,ugm-3
07-01-2009,13:00,148,R,ugm-3,69,R,ugm-3,294,R,ugm-3
07-01-2009,14:00,136,R,ugm-3,65,R,ugm-3,273,R,ugm-3
07-01-2009,15:00,151,R,ugm-3,67,R,ugm-3,298,R,ugm-3
07-01-2009,16:00,151,R,ugm-3,69,R,ugm-3,300,R,ugm-3
07-01-2009,17:00,125,R,ugm-3,63,R,ugm-3,254,R,ugm-3
07-01-2009,18:00,156,R,ugm-3,76,R,ugm-3,315,R,ugm-3
07-01-2009,19:00,151,R,ugm-3,73,R,ugm-3,304,R,ugm-3
07-01-2009,20:00,135,R,ugm-3,71,R,ugm-3,277,R,ugm-3
07-01-2009,21:00,153,R,ugm-3,76,R,ugm-3,309,R,ugm-3
07-01-2009,22:00,103,R,ugm-3,69,R,ugm-3,225,R,ugm-3
07-01-2009,23:00,96,R,ugm-3,67,R,ugm-3,214,R,ugm-3
07-01-2009,24:00,73,R,ugm-3,63,R,ugm-3,174,R,ugm-3
08-01-2009,01:00,48,R,ugm-3,55,R,ugm-3,128,R,ugm-3
08-01-2009,02:00,30,R,ugm-3,52,R,ugm-3,97,R,ugm-3
08-01-2009,03:00,35,R,ugm-3,50,R,ugm-3,103,R,ugm-3
08-01-2009,04:00,40,R,ugm-3,48,R,ugm-3,109,R,ugm-3
08-01-2009,05:00,44,R,ugm-3,46,R,ugm-3,113,R,ugm-3
08-01-2009,06:00,48,R,ugm-3,46,R,ugm-3,118,R,ugm-3
08-01-2009,07:00,69,R,ugm-3,55,R,ugm-3,160,R,ugm-3
08-01-2009,08:00,105,R,ugm-3,61,R,ugm-3,222,R,ugm-3
08-01-2009,09:00,151,R,ugm-3,71,R,ugm-3,302,R,ugm-3
08-01-2009,10:00,153,R,ugm-3,73,R,ugm-3,306,R,ugm-3
08-01-2009,11:00,209,R,ugm-3,78,R,ugm-3,397,R,ugm-3
08-01-2009,12:00,166,R,ugm-3,69,R,ugm-3,323,R,ugm-3
08-01-2009,13:00,180,R,ugm-3,74,R,ugm-3,350,R,ugm-3
08-01-2009,14:00,201,R,ugm-3,76,R,ugm-3,384,R,ugm-3
08-01-2009,15:00,150,R,ugm-3,67,R,ugm-3,296,R,ugm-3
08-01-2009,16:00,159,R,ugm-3,69,R,ugm-3,311,R,ugm-3
08-01-2009,17:00,151,R,ugm-3,76,R,ugm-3,308,R,ugm-3
08-01-2009,18:00,191,R,ugm-3,80,R,ugm-3,372,R,ugm-3
08-01-2009,19:00,171,R,ugm-3,73,R,ugm-3,334,R,ugm-3
08-01-2009,20:00,125,R,ugm-3,69,R,ugm-3,260,R,ugm-3
08-01-2009,21:00,83,R,ugm-3,57,R,ugm-3,183,R,ugm-3
08-01-2009,22:00,78,R,ugm-3,53,R,ugm-3,172,R,ugm-3
08-01-2009,23:00,76,R,ugm-3,53,R,ugm-3,170,R,ugm-3
08-01-2009,24:00,66,R,ugm-3,50,R,ugm-3,151,R,ugm-3
09-01-2009,01:00,70,R,ugm-3,50,R,ugm-3,157,R,ugm-3
09-01-2009,02:00,50,R,ugm-3,36,R,ugm-3,113,R,ugm-3
09-01-2009,03:00,48,R,ugm-3,40,R,ugm-3,113,R,ugm-3
09-01-2009,04:00,19,R,ugm-3,38,R,ugm-3,67,R,ugm-3
09-01-2009,05:00,18,R,ugm-3,38,R,ugm-3,65,R,ugm-3
09-01-2009,06:00,36,R,ugm-3,40,R,ugm-3,96,R,ugm-3
09-01-2009,07:00,21,R,ugm-3,44,R,ugm-3,76,R,ugm-3
09-01-2009,08:00,101,R,ugm-3,57,R,ugm-3,212,R,ugm-3
09-01-2009,09:00,151,R,ugm-3,61,R,ugm-3,292,R,ugm-3
09-01-2009,10:00,154,R,ugm-3,80,R,ugm-3,315,R,ugm-3
09-01-2009,11:00,119,R,ugm-3,61,R,ugm-3,243,R,ugm-3
09-01-2009,12:00,170,R,ugm-3,73,R,ugm-3,332,R,ugm-3
09-01-2009,13:00,114,R,ugm-3,52,R,ugm-3,225,R,ugm-3
09-01-2009,14:00,89,R,ugm-3,61,R,ugm-3,197,R,ugm-3
09-01-2009,15:00,78,R,ugm-3,59,R,ugm-3,178,R,ugm-3
09-01-2009,16:00,73,R,ugm-3,57,R,ugm-3,168,R,ugm-3
09-01-2009,17:00,75,R,ugm-3,53,R,ugm-3,168,R,ugm-3
09-01-2009,18:00,104,R,ugm-3,69,R,ugm-3,227,R,ugm-3
09-01-2009,19:00,81,R,ugm-3,69,R,ugm-3,193,R,ugm-3
09-01-2009,20:00,75,R,ugm-3,65,R,ugm-3,180,R,ugm-3
09-01-2009,21:00,43,R,ugm-3,65,R,ugm-3,130,R,ugm-3
09-01-2009,22:00,51,R,ugm-3,65,R,ugm-3,143,R,ugm-3
09-01-2009,23:00,43,R,ugm-3,59,R,ugm-3,124,R,ugm-3
09-01-2009,24:00,43,R,ugm-3,67,R,ugm-3,132,R,ugm-3
10-01-2009,01:00,36,R,ugm-3,73,R,ugm-3,128,R,ugm-3
10-01-2009,02:00,28,R,ugm-3,69,R,ugm-3,111,R,ugm-3
10-01-2009,03:00,38,R,ugm-3,71,R,ugm-3,128,R,ugm-3
10-01-2009,04:00,53,R,ugm-3,76,R,ugm-3,157,R,ugm-3
10-01-2009,05:00,50,R,ugm-3,73,R,ugm-3,149,R,ugm-3
10-01-2009,06:00,36,R,ugm-3,67,R,ugm-3,122,R,ugm-3
10-01-2009,07:00,41,R,ugm-3,69,R,ugm-3,132,R,ugm-3
10-01-2009,08:00,64,R,ugm-3,78,R,ugm-3,176,R,ugm-3
10-01-2009,09:00,89,R,ugm-3,82,R,ugm-3,218,R,ugm-3
10-01-2009,10:00,119,R,ugm-3,65,R,ugm-3,246,R,ugm-3
10-01-2009,11:00,133,R,ugm-3,82,R,ugm-3,285,R,ugm-3
10-01-2009,12:00,129,R,ugm-3,84,R,ugm-3,281,R,ugm-3
10-01-2009,13:00,136,R,ugm-3,84,R,ugm-3,292,R,ugm-3
10-01-2009,14:00,129,R,ugm-3,82,R,ugm-3,279,R,ugm-3
10-01-2009,15:00,169,R,ugm-3,84,R,ugm-3,342,R,ugm-3
10-01-2009,16:00,128,R,ugm-3,82,R,ugm-3,277,R,ugm-3
10-01-2009,17:00,154,R,ugm-3,88,R,ugm-3,323,R,ugm-3
10-01-2009,18:00,178,R,ugm-3,90,R,ugm-3,361,R,ugm-3
10-01-2009,19:00,166,R,ugm-3,90,R,ugm-3,344,R,ugm-3
10-01-2009,20:00,84,R,ugm-3,71,R,ugm-3,199,R,ugm-3
10-01-2009,21:00,54,R,ugm-3,71,R,ugm-3,153,R,ugm-3
10-01-2009,22:00,61,R,ugm-3,63,R,ugm-3,157,R,ugm-3
10-01-2009,23:00,43,R,ugm-3,61,R,ugm-3,126,R,ugm-3
10-01-2009,24:00,48,R,ugm-3,61,R,ugm-3,134,R,ugm-3
11-01-2009,01:00,24,R,ugm-3,53,R,ugm-3,90,R,ugm-3
11-01-2009,02:00,16,R,ugm-3,38,R,ugm-3,63,R,ugm-3
11-01-2009,03:00,10,R,ugm-3,29,R,ugm-3,44,R,ugm-3
11-01-2009,04:00,18,R,ugm-3,34,R,ugm-3,61,R,ugm-3
11-01-2009,05:00,8,R,ugm-3,29,R,ugm-3,40,R,ugm-3
11-01-2009,06:00,1,R,ugm-3,23,R,ugm-3,25,R,ugm-3
11-01-2009,07:00,3,R,ugm-3,21,R,ugm-3,25,R,ugm-3
11-01-2009,08:00,5,R,ugm-3,19,R,ugm-3,27,R,ugm-3
11-01-2009,09:00,4,R,ugm-3,21,R,ugm-3,27,R,ugm-3
11-01-2009,10:00,4,R,ugm-3,25,R,ugm-3,31,R,ugm-3
11-01-2009,11:00,14,R,ugm-3,31,R,ugm-3,52,R,ugm-3
11-01-2009,12:00,20,R,ugm-3,29,R,ugm-3,59,R,ugm-3
11-01-2009,13:00,20,R,ugm-3,32,R,ugm-3,63,R,ugm-3
11-01-2009,14:00,19,R,ugm-3,36,R,ugm-3,65,R,ugm-3
11-01-2009,15:00,30,R,ugm-3,48,R,ugm-3,94,R,ugm-3
11-01-2009,16:00,26,R,ugm-3,44,R,ugm-3,84,R,ugm-3
11-01-2009,17:00,25,R,ugm-3,42,R,ugm-3,80,R,ugm-3
11-01-2009,18:00,20,R,ugm-3,34,R,ugm-3,65,R,ugm-3
11-01-2009,19:00,9,R,ugm-3,27,R,ugm-3,40,R,ugm-3
11-01-2009,20:00,6,R,ugm-3,25,R,ugm-3,34,R,ugm-3
11-01-2009,21:00,6,R,ugm-3,21,R,ugm-3,31,R,ugm-3
11-01-2009,22:00,9,R,ugm-3,21,R,ugm-3,34,R,ugm-3
11-01-2009,23:00,9,R,ugm-3,21,R,ugm-3,34,R,ugm-3
11-01-2009,24:00,5,R,ugm-3,15,R,ugm-3,23,R,ugm-3
12-01-2009,01:00,6,R,ugm-3,15,R,ugm-3,25,R,ugm-3
12-01-2009,02:00,1,R,ugm-3,10,R,ugm-3,11,R,ugm-3
12-01-2009,03:00,1,R,ugm-3,8,R,ugm-3,10,R,ugm-3
12-01-2009,04:00,1,R,ugm-3,6,R,ugm-3,8,R,ugm-3
12-01-2009,05:00,1,R,ugm-3,6,R,ugm-3,8,R,ugm-3
12-01-2009,06:00,1,R,ugm-3,8,R,ugm-3,10,R,ugm-3
12-01-2009,07:00,1,R,ugm-3,8,R,ugm-3,10,R,ugm-3
12-01-2009,08:00,15,R,ugm-3,23,R,ugm-3,46,R,ugm-3
12-01-2009,09:00,34,R,ugm-3,38,R,ugm-3,90,R,ugm-3
12-01-2009,10:00,44,R,ugm-3,40,R,ugm-3,107,R,ugm-3
12-01-2009,11:00,51,R,ugm-3,44,R,ugm-3,122,R,ugm-3
12-01-2009,12:00,49,R,ugm-3,48,R,ugm-3,122,R,ugm-3
12-01-2009,13:00,55,R,ugm-3,50,R,ugm-3,134,R,ugm-3
12-01-2009,14:00,43,R,ugm-3,38,R,ugm-3,103,R,ugm-3
12-01-2009,15:00,41,R,ugm-3,42,R,ugm-3,105,R,ugm-3
12-01-2009,16:00,49,R,ugm-3,44,R,ugm-3,118,R,ugm-3
12-01-2009,17:00,50,R,ugm-3,46,R,ugm-3,122,R,ugm-3
12-01-2009,18:00,53,R,ugm-3,42,R,ugm-3,122,R,ugm-3
12-01-2009,19:00,51,R,ugm-3,48,R,ugm-3,126,R,ugm-3
12-01-2009,20:00,34,R,ugm-3,36,R,ugm-3,88,R,ugm-3
12-01-2009,21:00,30,R,ugm-3,40,R,ugm-3,86,R,ugm-3
12-01-2009,22:00,24,R,ugm-3,38,R,ugm-3,74,R,ugm-3
12-01-2009,23:00,16,R,ugm-3,32,R,ugm-3,57,R,ugm-3
12-01-2009,24:00,14,R,ugm-3,29,R,ugm-3,50,R,ugm-3
13-01-2009,01:00,5,R,ugm-3,21,R,ugm-3,29,R,ugm-3
13-01-2009,02:00,5,R,ugm-3,17,R,ugm-3,25,R,ugm-3
13-01-2009,03:00,4,R,ugm-3,17,R,ugm-3,23,R,ugm-3
13-01-2009,04:00,4,R,ugm-3,15,R,ugm-3,21,R,ugm-3
13-01-2009,05:00,4,R,ugm-3,15,R,ugm-3,21,R,ugm-3
13-01-2009,06:00,4,R,ugm-3,15,R,ugm-3,21,R,ugm-3
13-01-2009,07:00,8,R,ugm-3,21,R,ugm-3,32,R,ugm-3
13-01-2009,08:00,34,R,ugm-3,46,R,ugm-3,97,R,ugm-3
13-01-2009,09:00,66,R,ugm-3,73,R,ugm-3,174,R,ugm-3
13-01-2009,10:00,105,R,ugm-3,78,R,ugm-3,239,R,ugm-3
13-01-2009,11:00,100,R,ugm-3,59,R,ugm-3,212,R,ugm-3
13-01-2009,12:00,118,R,ugm-3,74,R,ugm-3,254,R,ugm-3
13-01-2009,13:00,94,R,ugm-3,74,R,ugm-3,218,R,ugm-3
13-01-2009,14:00,94,R,ugm-3,73,R,ugm-3,216,R,ugm-3
13-01-2009,15:00,93,R,ugm-3,67,R,ugm-3,208,R,ugm-3
13-01-2009,16:00,95,R,ugm-3,71,R,ugm-3,216,R,ugm-3
13-01-2009,17:00,120,R,ugm-3,76,R,ugm-3,260,R,ugm-3
13-01-2009,18:00,120,R,ugm-3,80,R,ugm-3,264,R,ugm-3
13-01-2009,19:00,160,R,ugm-3,90,R,ugm-3,334,R,ugm-3
13-01-2009,20:00,106,R,ugm-3,76,R,ugm-3,239,R,ugm-3
13-01-2009,21:00,54,R,ugm-3,63,R,ugm-3,145,R,ugm-3
13-01-2009,22:00,44,R,ugm-3,57,R,ugm-3,124,R,ugm-3
13-01-2009,23:00,101,R,ugm-3,74,R,ugm-3,229,R,ugm-3
13-01-2009,24:00,49,R,ugm-3,61,R,ugm-3,136,R,ugm-3
14-01-2009,01:00,19,R,ugm-3,46,R,ugm-3,74,R,ugm-3
14-01-2009,02:00,16,R,ugm-3,50,R,ugm-3,74,R,ugm-3
14-01-2009,03:00,13,R,ugm-3,44,R,ugm-3,63,R,ugm-3
14-01-2009,04:00,16,R,ugm-3,44,R,ugm-3,69,R,ugm-3
14-01-2009,05:00,8,R,ugm-3,38,R,ugm-3,50,R,ugm-3
14-01-2009,06:00,31,R,ugm-3,44,R,ugm-3,92,R,ugm-3
14-01-2009,07:00,28,R,ugm-3,44,R,ugm-3,86,R,ugm-3
14-01-2009,08:00,81,R,ugm-3,55,R,ugm-3,180,R,ugm-3
14-01-2009,09:00,166,R,ugm-3,78,R,ugm-3,332,R,ugm-3
14-01-2009,10:00,158,R,ugm-3,69,R,ugm-3,309,R,ugm-3
14-01-2009,11:00,145,R,ugm-3,74,R,ugm-3,296,R,ugm-3
14-01-2009,12:00,173,R,ugm-3,74,R,ugm-3,338,R,ugm-3
14-01-2009,13:00,144,R,ugm-3,67,R,ugm-3,287,R,ugm-3
14-01-2009,14:00,120,R,ugm-3,59,R,ugm-3,243,R,ugm-3
14-01-2009,15:00,115,R,ugm-3,59,R,ugm-3,235,R,ugm-3
14-01-2009,16:00,110,R,ugm-3,69,R,ugm-3,237,R,ugm-3
14-01-2009,17:00,118,R,ugm-3,71,R,ugm-3,250,R,ugm-3
14-01-2009,18:00,129,R,ugm-3,86,R,ugm-3,283,R,ugm-3
14-01-2009,19:00,141,R,ugm-3,94,R,ugm-3,309,R,ugm-3
14-01-2009,20:00,155,R,ugm-3,99,R,ugm-3,336,R,ugm-3
14-01-2009,21:00,70,R,ugm-3,78,R,ugm-3,185,R,ugm-3
14-01-2009,22:00,36,R,ugm-3,67,R,ugm-3,122,R,ugm-3
14-01-2009,23:00,39,R,ugm-3,67,R,ugm-3,126,R,ugm-3
14-01-2009,24:00,19,R,ugm-3,57,R,ugm-3,86,R,ugm-3
15-01-2009,01:00,11,R,ugm-3,50,R,ugm-3,67,R,ugm-3
15-01-2009,02:00,1,R,ugm-3,36,R,ugm-3,38,R,ugm-3
15-01-2009,03:00,9,R,ugm-3,36,R,ugm-3,50,R,ugm-3
15-01-2009,04:00,3,R,ugm-3,27,R,ugm-3,31,R,ugm-3
15-01-2009,05:00,1,R,ugm-3,23,R,ugm-3,25,R,ugm-3
15-01-2009,06:00,1,R,ugm-3,21,R,ugm-3,23,R,ugm-3
15-01-2009,07:00,8,R,ugm-3,29,R,ugm-3,40,R,ugm-3
15-01-2009,08:00,24,R,ugm-3,44,R,ugm-3,80,R,ugm-3
15-01-2009,09:00,53,R,ugm-3,48,R,ugm-3,128,R,ugm-3
15-01-2009,10:00,60,R,ugm-3,53,R,ugm-3,145,R,ugm-3
15-01-2009,11:00,64,R,ugm-3,53,R,ugm-3,151,R,ugm-3
15-01-2009,12:00,66,R,ugm-3,57,R,ugm-3,159,R,ugm-3
15-01-2009,13:00,70,R,ugm-3,61,R,ugm-3,168,R,ugm-3
15-01-2009,14:00,70,R,ugm-3,52,R,ugm-3,159,R,ugm-3
15-01-2009,15:00,81,R,ugm-3,61,R,ugm-3,185,R,ugm-3
15-01-2009,16:00,68,R,ugm-3,65,R,ugm-3,168,R,ugm-3
15-01-2009,17:00,79,R,ugm-3,65,R,ugm-3,185,R,ugm-3
15-01-2009,18:00,70,R,ugm-3,61,R,ugm-3,168,R,ugm-3
15-01-2009,19:00,73,R,ugm-3,69,R,ugm-3,180,R,ugm-3
15-01-2009,20:00,49,R,ugm-3,63,R,ugm-3,138,R,ugm-3
15-01-2009,21:00,36,R,ugm-3,55,R,ugm-3,111,R,ugm-3
15-01-2009,22:00,45,R,ugm-3,59,R,ugm-3,128,R,ugm-3
15-01-2009,23:00,25,R,ugm-3,50,R,ugm-3,88,R,ugm-3
15-01-2009,24:00,16,R,ugm-3,46,R,ugm-3,71,R,ugm-3
16-01-2009,01:00,10,R,ugm-3,38,R,ugm-3,53,R,ugm-3
16-01-2009,02:00,10,R,ugm-3,34,R,ugm-3,50,R,ugm-3
16-01-2009,03:00,8,R,ugm-3,32,R,ugm-3,44,R,ugm-3
16-01-2009,04:00,6,R,ugm-3,32,R,ugm-3,42,R,ugm-3
16-01-2009,05:00,4,R,ugm-3,32,R,ugm-3,38,R,ugm-3
16-01-2009,06:00,9,R,ugm-3,32,R,ugm-3,46,R,ugm-3
16-01-2009,07:00,10,R,ugm-3,34,R,ugm-3,50,R,ugm-3
16-01-2009,08:00,41,R,ugm-3,46,R,ugm-3,109,R,ugm-3
16-01-2009,09:00,84,R,ugm-3,55,R,ugm-3,183,R,ugm-3
16-01-2009,10:00,98,R,ugm-3,55,R,ugm-3,204,R,ugm-3
16-01-2009,11:00,96,R,ugm-3,53,R,ugm-3,201,R,ugm-3
16-01-2009,12:00,86,R,ugm-3,52,R,ugm-3,183,R,ugm-3
16-01-2009,13:00,79,R,ugm-3,55,R,ugm-3,176,R,ugm-3
16-01-2009,14:00,81,R,ugm-3,53,R,ugm-3,178,R,ugm-3
16-01-2009,15:00,71,R,ugm-3,53,R,ugm-3,162,R,ugm-3
16-01-2009,16:00,76,R,ugm-3,59,R,ugm-3,176,R,ugm-3
16-01-2009,17:00,73,R,ugm-3,59,R,ugm-3,170,R,ugm-3
16-01-2009,18:00,75,R,ugm-3,57,R,ugm-3,172,R,ugm-3
16-01-2009,19:00,91,R,ugm-3,57,R,ugm-3,197,R,ugm-3
16-01-2009,20:00,44,R,ugm-3,57,R,ugm-3,124,R,ugm-3
16-01-2009,21:00,33,R,ugm-3,52,R,ugm-3,101,R,ugm-3
16-01-2009,22:00,20,R,ugm-3,44,R,ugm-3,74,R,ugm-3
16-01-2009,23:00,19,R,ugm-3,34,R,ugm-3,63,R,ugm-3
16-01-2009,24:00,15,R,ugm-3,32,R,ugm-3,55,R,ugm-3
17-01-2009,01:00,13,R,ugm-3,27,R,ugm-3,46,R,ugm-3
17-01-2009,02:00,10,R,ugm-3,25,R,ugm-3,40,R,ugm-3
17-01-2009,03:00,6,R,ugm-3,15,R,ugm-3,25,R,ugm-3
17-01-2009,04:00,4,R,ugm-3,13,R,ugm-3,19,R,ugm-3
17-01-2009,05:00,4,R,ugm-3,11,R,ugm-3,17,R,ugm-3
17-01-2009,06:00,6,R,ugm-3,10,R,ugm-3,19,R,ugm-3
17-01-2009,07:00,4,R,ugm-3,10,R,ugm-3,15,R,ugm-3
17-01-2009,08:00,6,R,ugm-3,11,R,ugm-3,21,R,ugm-3
17-01-2009,09:00,14,R,ugm-3,19,R,ugm-3,40,R,ugm-3
17-01-2009,10:00,36,R,ugm-3,40,R,ugm-3,96,R,ugm-3
17-01-2009,11:00,26,R,ugm-3,31,R,ugm-3,71,R,ugm-3
17-01-2009,12:00,44,R,ugm-3,48,R,ugm-3,115,R,ugm-3
17-01-2009,13:00,29,R,ugm-3,38,R,ugm-3,82,R,ugm-3
17-01-2009,14:00,43,R,ugm-3,48,R,ugm-3,113,R,ugm-3
17-01-2009,15:00,89,R,ugm-3,63,R,ugm-3,199,R,ugm-3
17-01-2009,16:00,75,R,ugm-3,59,R,ugm-3,174,R,ugm-3
17-01-2009,17:00,69,R,ugm-3,61,R,ugm-3,166,R,ugm-3
17-01-2009,18:00,74,R,ugm-3,55,R,ugm-3,168,R,ugm-3
17-01-2009,19:00,36,R,ugm-3,44,R,ugm-3,99,R,ugm-3
17-01-2009,20:00,26,R,ugm-3,32,R,ugm-3,73,R,ugm-3
17-01-2009,21:00,25,R,ugm-3,29,R,ugm-3,67,R,ugm-3
17-01-2009,22:00,14,R,ugm-3,21,R,ugm-3,42,R,ugm-3
17-01-2009,23:00,13,R,ugm-3,17,R,ugm-3,36,R,ugm-3
17-01-2009,24:00,18,R,ugm-3,23,R,ugm-3,50,R,ugm-3
18-01-2009,01:00,18,R,ugm-3,29,R,ugm-3,55,R,ugm-3
18-01-2009,02:00,13,R,ugm-3,27,R,ugm-3,46,R,ugm-3
18-01-2009,03:00,15,R,ugm-3,38,R,ugm-3,61,R,ugm-3
18-01-2009,04:00,15,R,ugm-3,34,R,ugm-3,57,R,ugm-3
18-01-2009,05:00,8,R,ugm-3,21,R,ugm-3,32,R,ugm-3
18-01-2009,06:00,1,R,ugm-3,11,R,ugm-3,13,R,ugm-3
18-01-2009,07:00,3,R,ugm-3,11,R,ugm-3,15,R,ugm-3
18-01-2009,08:00,6,R,ugm-3,21,R,ugm-3,31,R,ugm-3
18-01-2009,09:00,8,R,ugm-3,21,R,ugm-3,32,R,ugm-3
18-01-2009,10:00,5,R,ugm-3,21,R,ugm-3,29,R,ugm-3
18-01-2009,11:00,14,R,ugm-3,34,R,ugm-3,55,R,ugm-3
18-01-2009,12:00,19,R,ugm-3,32,R,ugm-3,61,R,ugm-3
18-01-2009,13:00,18,R,ugm-3,32,R,ugm-3,59,R,ugm-3
18-01-2009,14:00,15,R,ugm-3,32,R,ugm-3,55,R,ugm-3
18-01-2009,15:00,21,R,ugm-3,36,R,ugm-3,69,R,ugm-3
18-01-2009,16:00,19,R,ugm-3,34,R,ugm-3,63,R,ugm-3
18-01-2009,17:00,23,R,ugm-3,36,R,ugm-3,71,R,ugm-3
18-01-2009,18:00,35,R,ugm-3,50,R,ugm-3,103,R,ugm-3
18-01-2009,19:00,30,R,ugm-3,44,R,ugm-3,90,R,ugm-3
18-01-2009,20:00,14,R,ugm-3,29,R,ugm-3,50,R,ugm-3
18-01-2009,21:00,18,R,ugm-3,23,R,ugm-3,50,R,ugm-3
18-01-2009,22:00,14,R,ugm-3,31,R,ugm-3,52,R,ugm-3
18-01-2009,23:00,10,R,ugm-3,23,R,ugm-3,38,R,ugm-3
18-01-2009,24:00,10,R,ugm-3,25,R,ugm-3,40,R,ugm-3
19-01-2009,01:00,6,R,ugm-3,17,R,ugm-3,27,R,ugm-3
19-01-2009,02:00,3,R,ugm-3,17,R,ugm-3,21,R,ugm-3
19-01-2009,03:00,1,R,ugm-3,19,R,ugm-3,21,R,ugm-3
19-01-2009,04:00,1,R,ugm-3,19,R,ugm-3,21,R,ugm-3
19-01-2009,05:00,3,R,ugm-3,15,R,ugm-3,19,R,ugm-3
19-01-2009,06:00,6,R,ugm-3,15,R,ugm-3,25,R,ugm-3
19-01-2009,07:00,5,R,ugm-3,17,R,ugm-3,25,R,ugm-3
19-01-2009,08:00,18,R,ugm-3,34,R,ugm-3,61,R,ugm-3
19-01-2009,09:00,38,R,ugm-3,44,R,ugm-3,101,R,ugm-3
19-01-2009,10:00,59,R,ugm-3,63,R,ugm-3,153,R,ugm-3
19-01-2009,11:00,170,R,ugm-3,92,R,ugm-3,351,R,ugm-3
19-01-2009,12:00,,,,,,,,,
19-01-2009,13:00,,,,,,,,,
19-01-2009,14:00,,,,,,,,,
19-01-2009,15:00,61,R,ugm-3,50,R,ugm-3,143,R,ugm-3
19-01-2009,16:00,44,R,ugm-3,50,R,ugm-3,117,R,ugm-3
19-01-2009,17:00,55,R,ugm-3,53,R,ugm-3,138,R,ugm-3
19-01-2009,18:00,44,R,ugm-3,55,R,ugm-3,122,R,ugm-3
19-01-2009,19:00,56,R,ugm-3,63,R,ugm-3,149,R,ugm-3
19-01-2009,20:00,41,R,ugm-3,55,R,ugm-3,118,R,ugm-3
19-01-2009,21:00,35,R,ugm-3,52,R,ugm-3,105,R,ugm-3
19-01-2009,22:00,16,R,ugm-3,42,R,ugm-3,67,R,ugm-3
19-01-2009,23:00,25,R,ugm-3,44,R,ugm-3,82,R,ugm-3
19-01-2009,24:00,11,R,ugm-3,32,R,ugm-3,50,R,ugm-3
20-01-2009,01:00,5,R,ugm-3,25,R,ugm-3,32,R,ugm-3
20-01-2009,02:00,4,R,ugm-3,19,R,ugm-3,25,R,ugm-3
20-01-2009,03:00,6,R,ugm-3,25,R,ugm-3,34,R,ugm-3
20-01-2009,04:00,6,R,ugm-3,25,R,ugm-3,34,R,ugm-3
20-01-2009,05:00,6,R,ugm-3,19,R,ugm-3,29,R,ugm-3
20-01-2009,06:00,4,R,ugm-3,15,R,ugm-3,21,R,ugm-3
20-01-2009,07:00,5,R,ugm-3,25,R,ugm-3,32,R,ugm-3
20-01-2009,08:00,26,R,ugm-3,44,R,ugm-3,84,R,ugm-3
20-01-2009,09:00,55,R,ugm-3,61,R,ugm-3,145,R,ugm-3
20-01-2009,10:00,121,R,ugm-3,84,R,ugm-3,269,R,ugm-3
20-01-2009,11:00,156,R,ugm-3,92,R,ugm-3,330,R,ugm-3
20-01-2009,12:00,85,R,ugm-3,73,R,ugm-3,202,R,ugm-3
20-01-2009,13:00,89,R,ugm-3,67,R,ugm-3,202,R,ugm-3
20-01-2009,14:00,75,R,ugm-3,73,R,ugm-3,187,R,ugm-3